Location: Hoover
(45.1124°N, 103.2678°W)
Time: 09:58:25
(UTC+00:00)

N. Korean satellite - Pass Details

Date: 02 December 2020
Orbit: 453 x 502 km, 97.2° (Epoch: 19 January)

Event Time Altitude Azimuth Distance (km) Brightness Sun altitude
Rises 00:09:50 0° 192° (SSW) 2,455 10.6 -9.9°
Reaches altitude 10° 00:12:05 10° 206° (SSW) 1,592 9.9 -10.3°
Maximum altitude 00:15:00 26° 265° (W) 940 9.0 -10.8°
Drops below altitude 10° 00:17:58 10° 323° (NW) 1,620 9.4 -11.3°
Sets 00:20:16 0° 337° (NNW) 2,510 10.2 -11.7°
